[[{"header":{"parameterUnit":"m.s-1","parameterCategory":1,"la1":30.2991,"la2":30.254,"lo1":-89.0895,"lo2":-89.0444,"dy":0.0017,"dx":0.0017,"nx":28,"ny":28,"refTime":"2023-10-29T03:00:00:Z","depth":0,"parameterNumber":2,"parameterNumberName":"U-component_of_WINDS"},"data":[0,0,0,0,0,0,0,0,0,0,0,0,0,0,0,0,0,0,0,0,0,0,0,0,0,0,0,0,0,0,0,0,0,0,0,0,0,0,0,0,0,0,0,0,0,0,0,0,0,0,0,0,0,0,0,0,0,0,-2.2884,-2.2885,0,-2.2892,-2.2892,-2.2892,-2.2836,-2.2834,-2.2833,-2.2831,-2.2837,-2.2839,-2.284,0,0,0,0,0,0,0,0,0,0,0,0,0,-2.2821,-2.2823,-2.2884,-2.2885,-2.2885,-2.2892,-2.2892,-2.2892,-2.2836,-2.2834,-2.2832,-2.2831,-2.2837,-2.2839,-2.284,0,0,0,0,0,0,0,0,0,0,0,0,0,-2.2841,-2.2823,-2.2884,-2.2858,-2.2855,-2.2892,-2.2892,-2.2892,-2.2837,-2.2834,-2.2832,-2.283,-2.2836,-2.2838,-2.2841,-2.2903,0,0,-2.2848,-2.2849,0,0,0,0,0,0,0,0,-2.2839,-2.2843,-2.2862,-2.286,-2.2857,-2.2861,-2.2872,-2.2896,-2.2837,-2.2844,-2.2831,-2.2829,-2.2847,-2.2848,-2.2855,-2.2903,-2.2903,-2.2848,-2.285,-2.2851,-2.2852,0,0,0,0,0,0,0,-2.2838,-2.2842,-2.2887,-2.2862,-2.2859,-2.2845,-2.2845,-2.2876,-2.2858,-2.2843,-2.2839,-2.2841,-2.2845,-2.2852,-2.2854,-2.2903,-2.2848,-2.285,-2.2852,-2.2853,-2.3003,-2.3005,0,0,0,0,0,0,-2.2841,-2.2842,-2.2887,-2.2887,-2.2842,-2.2848,-2.2848,-2.2862,-2.2858,-2.2855,-2.2843,-2.2838,-2.2849,-2.2852,-2.2854,-2.2926,-2.2851,-2.2853,-2.2854,-2.3,-2.3003,-2.3006,0,0,0,0,0,0,-2.284,-2.2845,-2.2887,-2.2863,-2.2868,-2.2852,-2.2867,-2.2863,-2.287,-2.2858,-2.2854,-2.2853,-2.2848,-2.2851,-2.2891,-2.2925,-2.2854,-2.2856,-2.2997,-2.3001,-2.3005,-2.307,0,0,0,0,0,0,-2.2838,-2.2845,-2.2869,-2.2864,-2.2869,-2.2924,-2.2869,-2.2865,-2.2875,-2.2869,-2.2867,-2.2864,-2.2846,-2.2888,-2.2894,-2.2927,-2.2858,-2.2994,-2.2999,-2.3003,-2.3064,-2.3075,-2.3085,0,0,0,0,0,-2.2836,-2.2886,-2.287,-2.2876,-2.2898,-2.2926,-2.2928,-2.2907,-2.2878,-2.2901,-2.2893,-2.2864,-2.2921,-2.2892,-2.2898,-2.2933,-2.2992,-2.2998,-2.3003,-2.306,-2.3073,-2.3084,0,0,0,0,0,0,-2.2894,-2.2885,-2.2867,-2.2918,-2.2923,-2.2916,-2.2945,-2.2922,-2.2935,-2.2929,-2.2902,-2.2902,-2.2946,-2.2944,-2.2912,-2.2993,-2.2951,-2.2958,-2.2992,-2.3005,-2.3015,-2.3014,-2.286,0,0,0,0,0,-2.2913,-2.2937,-2.2928,-2.2973,-2.2977,-2.2961,-2.2972,-2.2955,-2.296,-2.2961,-2.2956,-2.2961,-2.298,-2.2992,-2.3009,-2.3065,-2.3063,-2.3092,-2.3102,-2.311,-2.3116,-2.3145,-2.3157,-2.3025,-2.3025,-2.3024,0,0,-2.2951,-2.295,-2.2966,-2.2985,-2.2987,-2.3011,-2.2963,-2.2991,-2.3009,-2.2965,-2.3003,-2.3,-2.3003,-2.3051,-2.3072,-2.3051,-2.3153,-2.3118,-2.3124,-2.3126,-2.3152,-2.3165,-2.3176,-2.3028,-2.3028,-2.3027,0,0,-2.3034,-2.3036,-2.3074,-2.3078,-2.3082,-2.3071,-2.3081,-2.3078,-2.3074,-2.3112,-2.3079,-2.31,-2.3134,-2.3137,-2.3144,-2.323,-2.3204,-2.3237,-2.3288,-2.3317,-2.3327,-2.3336,-2.3366,-2.3377,-2.3243,-2.3243,-2.3243,0,-2.3081,-2.3118,-2.3096,-2.3127,-2.3135,-2.3099,-2.3137,-2.3141,-2.3151,-2.3158,-2.3134,-2.3175,-2.3175,-2.3223,-2.3245,-2.3252,-2.3261,-2.3236,-2.3328,-2.3337,-2.3345,-2.3373,-2.3384,-2.3247,-2.3247,-2.3246,-2.3246,0,-2.3175,-2.3201,-2.3231,-2.3242,-2.3255,-2.3289,-2.3272,-2.3287,-2.3271,-2.3262,-2.3301,-2.33,-2.3316,-2.3327,-2.331,-2.3373,-2.3359,-2.3333,-2.3289,-2.3362,-2.3387,-2.3398,-2.3253,-2.3251,-2.325,-2.3249,0,0,-2.3292,-2.3292,-2.3303,-2.3308,-2.3311,-2.333,-2.3363,-2.3379,-2.3393,-2.3401,-2.3427,-2.3457,-2.3433,-2.344,-2.3424,-2.3449,-2.3516,-2.3419,-2.3418,-2.3436,-2.3584,-2.3603,-2.3616,-2.35,-2.3502,-2.3504,-2.3584,0,-2.3371,-2.3427,-2.341,-2.3466,-2.3489,-2.3456,-2.3485,-2.349,-2.3483,-2.3502,-2.3495,-2.3516,-2.3483,-2.3487,-2.351,-2.3503,-2.3546,-2.3498,-2.3523,-2.3524,-2.3521,-2.363,-2.365,-2.3725,-2.3594,-2.3595,-2.3597,0,-2.3471,-2.3484,-2.3543,-2.3543,-2.3552,-2.3578,-2.3592,-2.3611,-2.3616,-2.3609,-2.3619,-2.3598,-2.3629,-2.3588,-2.3631,-2.3599,-2.3609,-2.3607,-2.361,-2.3609,-2.3563,-2.3631,-2.3749,-2.3759,-2.3613,-2.3611,-2.361,0,-2.3549,-2.3582,-2.3621,-2.3626,-2.3627,-2.3646,-2.3647,-2.365,-2.3662,-2.3674,-2.3681,-2.3697,-2.3705,-2.3717,-2.3701,-2.3673,-2.3746,-2.3704,-2.3741,-2.3741,-2.3756,-2.3755,-2.3875,-2.3766,-2.3766,-2.3765,-2.3765,0,-2.3638,-2.3675,-2.3656,-2.368,-2.3721,-2.3701,-2.3741,-2.3738,-2.3742,-2.3764,-2.3737,-2.3759,-2.3737,-2.3757,-2.3745,-2.3781,-2.3786,-2.3781,-2.3777,-2.3782,-2.3783,-2.3787,-2.378,-2.3768,-2.3768,-2.3767,-2.3767,0,-2.3731,-2.3719,-2.376,-2.3758,-2.3759,-2.3789,-2.3787,-2.3809,-2.3802,-2.3831,-2.3837,-2.3825,-2.3847,-2.3833,-2.3855,-2.3846,-2.3894,-2.3884,-2.3893,-2.3889,-2.3926,-2.3922,-2.4052,-2.4067,-2.395,-2.3951,-2.3952,0,-2.3787,-2.3815,-2.3817,-2.3831,-2.3834,-2.3857,-2.3868,-2.385,-2.3863,-2.3872,-2.3893,-2.3913,-2.3927,-2.3964,-2.3957,-2.3974,-2.3962,-2.4007,-2.3965,-2.3969,-2.3961,-2.3959,-2.3961,-2.4014,-2.4016,-2.4017,-2.4018,0,-2.3889,-2.3883,-2.3901,-2.3917,-2.3932,-2.3944,-2.3954,-2.3967,-2.3949,-2.3965,-2.3987,-2.3999,-2.4022,-2.4042,-2.4056,-2.4057,-2.4034,-2.4032,-2.4041,-2.4045,-2.4049,-2.4046,-2.3914,-2.4028,-2.4027,-2.4026,-2.4026,-2.4025,-2.3964,-2.3987,-2.3993,-2.4014,-2.402,-2.403,-2.405,-2.4046,-2.4065,-2.4083,-2.4071,-2.4098,-2.4103,-2.412,-2.4124,-2.4144,-2.4126,-2.4139,-2.4142,-2.4145,-2.415,-2.4048,-2.4147,-2.4146,-2.4146,-2.4146,-2.4146,0,-2.4063,-2.4065,-2.4085,-2.41,-2.4117,-2.4096,-2.4106,-2.4121,-2.4145,-2.4152,-2.4168,-2.4194,-2.4213,-2.4209,-2.4226,-2.4243,-2.4233,-2.4248,-2.4246,-2.4246,-2.4166,-2.4155,-2.4256,-2.4256,-2.4256,-2.4256,-2.4256,-2.4256,-2.4116,-2.4154,-2.4149,-2.4189,-2.4191,-2.4217,-2.4225,-2.4234,-2.4239,-2.427,-2.4286,-2.4284,-2.4286,-2.4304,-2.4321,-2.4319,-2.4326,-2.4344,-2.4338,-2.4263,-2.4252,-2.4241,-2.4231,-2.4346,-2.4346,-2.4417,-2.4417,-2.4418]},{"header":{"parameterUnit":"m.s-1","parameterCategory":1,"la1":30.2991,"la2":30.254,"lo1":-89.0895,"lo2":-89.0444,"dy":0.0017,"dx":0.0017,"nx":28,"ny":28,"refTime":"2023-10-29T03:00:00:Z","depth":0,"parameterNumber":3,"parameterNumberName":"V-component_of_WINDS"},"data":[0,0,0,0,0,0,0,0,0,0,0,0,0,0,0,0,0,0,0,0,0,0,0,0,0,0,0,0,0,0,0,0,0,0,0,0,0,0,0,0,0,0,0,0,0,0,0,0,0,0,0,0,0,0,0,0,0,0,1.3968,1.3969,0,1.4138,1.414,1.4142,1.4199,1.4198,1.4197,1.4197,1.4364,1.4369,1.4374,0,0,0,0,0,0,0,0,0,0,0,0,0,1.3687,1.3691,1.3967,1.397,1.3972,1.4138,1.414,1.4142,1.4199,1.4198,1.4197,1.4196,1.4362,1.4368,1.4374,0,0,0,0,0,0,0,0,0,0,0,0,0,1.3828,1.3693,1.3967,1.402,1.4027,1.4137,1.414,1.4143,1.4199,1.4198,1.4197,1.4196,1.436,1.4368,1.4375,1.4443,0,0,1.4398,1.4402,0,0,0,0,0,0,0,0,1.382,1.3838,1.401,1.4017,1.4024,1.4146,1.4102,1.4243,1.4199,1.4133,1.4197,1.4196,1.4292,1.4305,1.4339,1.4451,1.4458,1.4399,1.4404,1.4407,1.4409,0,0,0,0,0,0,0,1.381,1.3831,1.4035,1.4013,1.4021,1.4034,1.4053,1.4129,1.4216,1.4139,1.4144,1.4163,1.4295,1.4331,1.4343,1.4461,1.4399,1.4406,1.441,1.4413,1.4642,1.4643,0,0,0,0,0,0,1.3792,1.3822,1.4029,1.404,1.3918,1.404,1.4061,1.4108,1.4215,1.4231,1.4164,1.4165,1.4319,1.4334,1.4349,1.444,1.4407,1.4414,1.4419,1.464,1.4642,1.4644,0,0,0,0,0,0,1.3786,1.381,1.4022,1.3933,1.3961,1.4046,1.4098,1.4112,1.4148,1.4235,1.425,1.4186,1.4319,1.4339,1.4421,1.4446,1.4418,1.4425,1.4638,1.4641,1.4643,1.4619,0,0,0,0,0,0,1.3777,1.3807,1.3835,1.3933,1.3965,1.4092,1.41,1.4116,1.4162,1.4166,1.4259,1.4273,1.4319,1.4409,1.4429,1.4456,1.4431,1.4637,1.464,1.4642,1.4618,1.462,1.4622,0,0,0,0,0,1.3767,1.3818,1.3836,1.386,1.4002,1.4094,1.4112,1.4167,1.4164,1.4192,1.4248,1.427,1.444,1.4417,1.444,1.447,1.4635,1.4639,1.4642,1.4617,1.4619,1.4622,0,0,0,0,0,0,1.3717,1.3832,1.3852,1.3937,1.4006,1.4103,1.414,1.4167,1.4235,1.4235,1.4298,1.4319,1.4397,1.4441,1.4414,1.4544,1.4539,1.4547,1.4512,1.4515,1.4517,1.4506,1.4437,0,0,0,0,0,1.3716,1.3783,1.3879,1.3945,1.3979,1.4053,1.4095,1.4132,1.4204,1.4233,1.4295,1.4362,1.4432,1.4476,1.4543,1.4624,1.4647,1.4656,1.4658,1.4659,1.4666,1.4716,1.4722,1.4655,1.4655,1.4654,0,0,1.3714,1.3785,1.3823,1.3937,1.3994,1.4062,1.4077,1.4146,1.4197,1.4242,1.4326,1.4374,1.4453,1.4537,1.4576,1.4576,1.469,1.4664,1.4664,1.467,1.472,1.4726,1.4732,1.4657,1.4656,1.4656,0,0,1.3746,1.3806,1.387,1.3928,1.4017,1.4067,1.4082,1.4177,1.4212,1.4297,1.4334,1.4394,1.4511,1.4568,1.4612,1.467,1.4694,1.469,1.4701,1.4749,1.4754,1.4759,1.4783,1.4791,1.4696,1.4696,1.4696,0,1.3732,1.3837,1.3897,1.3968,1.4018,1.4066,1.4131,1.4184,1.4288,1.4321,1.432,1.4472,1.4528,1.4627,1.4642,1.4675,1.4695,1.468,1.4749,1.4755,1.476,1.4784,1.4792,1.4695,1.4695,1.4695,1.4695,0,1.3817,1.389,1.393,1.4035,1.4089,1.4155,1.4226,1.4273,1.4306,1.4356,1.4444,1.4515,1.46,1.4626,1.4656,1.473,1.4728,1.4737,1.4734,1.4765,1.4788,1.4797,1.4694,1.4694,1.4695,1.4695,0,0,1.3819,1.3961,1.3975,1.4026,1.4129,1.4185,1.4255,1.4342,1.4383,1.4454,1.4515,1.4615,1.4626,1.4676,1.4713,1.4755,1.4802,1.476,1.4763,1.4767,1.4891,1.4885,1.4895,1.4818,1.4819,1.4821,1.4886,0,1.3867,1.3997,1.4055,1.4158,1.4228,1.4277,1.4338,1.4407,1.4457,1.4522,1.4575,1.4647,1.4654,1.4685,1.4729,1.4787,1.4827,1.4782,1.4875,1.4878,1.4856,1.4907,1.49,1.4957,1.4895,1.4896,1.4897,0,1.3938,1.4015,1.4127,1.4227,1.4258,1.4312,1.4399,1.446,1.4541,1.4574,1.4633,1.467,1.4745,1.4737,1.4842,1.481,1.4852,1.4886,1.489,1.4902,1.489,1.4922,1.4976,1.4986,1.4912,1.491,1.4909,0,1.3933,1.4064,1.4149,1.419,1.4307,1.4345,1.4395,1.4475,1.4525,1.46,1.4634,1.4715,1.476,1.4821,1.488,1.4868,1.4981,1.4976,1.5011,1.501,1.5034,1.5032,1.5098,1.5056,1.5056,1.5056,1.5056,0,1.3981,1.4047,1.4149,1.4201,1.4278,1.4345,1.4419,1.4472,1.4544,1.4607,1.4652,1.471,1.4783,1.485,1.4896,1.4978,1.4997,1.5026,1.5038,1.5024,1.5021,1.5053,1.5051,1.5058,1.5058,1.5057,1.5057,0,1.3987,1.4058,1.4154,1.426,1.4288,1.434,1.443,1.4483,1.4536,1.4616,1.4638,1.4721,1.4803,1.4868,1.4973,1.5004,1.5092,1.5103,1.5066,1.5073,1.5106,1.5103,1.5196,1.5214,1.5158,1.5158,1.5159,0,1.4014,1.4068,1.4181,1.4229,1.428,1.4355,1.4408,1.4476,1.4529,1.4628,1.4669,1.4756,1.4829,1.4957,1.5026,1.5108,1.5123,1.5151,1.5136,1.5121,1.5127,1.5125,1.5132,1.5152,1.5153,1.5153,1.5153,0,1.4055,1.4089,1.4165,1.4255,1.4319,1.4392,1.4465,1.4501,1.4583,1.464,1.4728,1.4785,1.4896,1.4981,1.5072,1.5122,1.5152,1.5158,1.5171,1.5158,1.5135,1.5151,1.5074,1.5155,1.5155,1.5155,1.5155,1.5155,1.4074,1.4126,1.4216,1.4301,1.4365,1.4434,1.4491,1.4553,1.4628,1.4727,1.4762,1.4852,1.4934,1.5059,1.5111,1.5182,1.5184,1.5201,1.5206,1.521,1.5211,1.5123,1.5198,1.5198,1.5198,1.5198,1.5198,0,1.412,1.4181,1.4259,1.4364,1.4432,1.4458,1.4542,1.4596,1.4676,1.4752,1.4825,1.4927,1.5011,1.5088,1.5177,1.5219,1.5235,1.524,1.5238,1.525,1.5202,1.5184,1.5226,1.5226,1.5226,1.5226,1.5226,1.5226,1.4152,1.4242,1.4287,1.4411,1.4471,1.4563,1.461,1.4675,1.4737,1.485,1.4922,1.4973,1.505,1.5146,1.5225,1.5245,1.5277,1.5279,1.5303,1.5257,1.5253,1.525,1.5233,1.5284,1.5284,1.5345,1.5346,1.5346]}]]